Content
SEND FEEDBACK

Daily
Averages
Monthly
Summary
Reunion

ST.-DENIS, REUNION


Home > Africa > Reunion
Elevation: 82 feet     Latitude: 20 53S     Longitude: 055 31E

WEATHER
 
SELECT A DAY
Number of Records: 222,399;   Date Range: 7/1/96 - 4/14/14
 
SHARE

PRINT THIS DATA

[ ← Previous Day ]
WEATHER ALMANAC - JANUARY 23, 2013
[ Next Day → ]
[ °C ]   °F
Weather ElementAverageHighLow
Temperature81 °F86 °F (11:00 am)75.2 °F (3:30 am)
Dewpoint73 °F75.2 °F (8:00 am)71 °F (5:00 am)
Humidity75.2 %89 % (12:30 am)60 % (2:00 pm)
Barometer29.91 in29.95 in (12:00 am)29.86 in (1:30 pm)
Wind Speed7.7 mph10.4 mph (7:00 am)
Weather ElementAverage
Visibility7.1 mi
Wind DirectionESE (113.6 °)

Weather ElementTotal
Precipitation---
Cooling Degree Days15.6 (Base 65)
Growing Degree Days30.6 (Base 50)
Averaged from 64 records on January 23, 2013
WEATHER CONDITIONS BREAKOUT
WIND DIRECTION BREAKOUT
WEATHER BY HOUR - JANUARY 23, 2013
[ °C ]   °F
Local TimeTemperatureDewpointHumidityBarometerVisibilityWind DirectionWind SpeedGust SpeedPrecipitationEventsConditions
12:00 AM77.0 °F71.6 °F83 %29.95 in6.2 miSouth (180°)2.3 mphMostly Cloudy
12:30 AM77.0 °F73.4 °F89 %29.95 in6.2 miSouth (170°)6.9 mphMostly Cloudy
1:00 AM77.0 °F73.4 °F89 %29.92 in6.2 miSouth (170°)8.1 mphMostly Cloudy
1:30 AM77.0 °F73.4 °F89 %29.92 in6.2 miSouth (170°)6.9 mphScattered Clouds
2:00 AM77.0 °F73.0 °F83 %29.93 in34.0 miSouth (170°)6.9 mphClear
2:00 AM77.0 °F73.4 °F89 %29.92 in6.2 miSouth (170°)6.9 mph
2:30 AM77.0 °F71.6 °F83 %29.92 in6.2 miSouth (170°)8.1 mph
3:00 AM77.0 °F71.6 °F83 %29.92 in6.2 miSouth (170°)8.1 mphPartly Cloudy
3:00 AM76.0 °F72.0 °F84 %29.93 in37.0 miSouth (170°)8.1 mphClear
3:30 AM75.2 °F71.6 °F89 %29.92 in6.2 miSouth (180°)8.1 mphPartly Cloudy
4:00 AM76.0 °F72.0 °F83 %29.92 in6.0 miSouth (170°)9.2 mphScattered Clouds
4:00 AM75.2 °F71.6 °F89 %29.92 in6.2 miSouth (170°)9.2 mphPartly Cloudy
5:00 AM76.0 °F71.0 °F81 %29.92 in6.0 miSouth (170°)9.2 mphScattered Clouds
5:00 AM75.2 °F71.6 °F89 %29.92 in6.2 miSouth (170°)9.2 mphPartly Cloudy
5:30 AM75.2 °F71.6 °F89 %29.92 in6.2 miSouth (170°)9.2 mphScattered Clouds
6:00 AM77.0 °F71.6 °F83 %29.92 in6.2 miSouth (170°)9.2 mphScattered Clouds
6:00 AM76.0 °F71.0 °F80 %29.94 in6.0 miSouth (170°)9.2 mphMostly Cloudy
6:30 AM77.0 °F73.4 °F89 %29.95 in5.0 miESE (110°)9.2 mphScattered Clouds
7:00 AM77.0 °F73.4 °F89 %29.95 in5.6 miSE (140°)10.4 mphRainLight Rain
7:30 AM77.0 °F73.4 °F89 %29.92 in6.2 miSSE (150°)10.4 mphScattered Clouds
8:00 AM80.0 °F75.0 °F79 %29.94 in6.0 miSSE (160°)8.1 mphRainLight Rain
8:00 AM80.6 °F75.2 °F84 %29.92 in6.2 miSSE (150°)8.1 mphScattered Clouds
8:30 AM82.4 °F73.4 °F74 %29.92 in6.2 miEast (90°)8.1 mphScattered Clouds
9:00 AM82.4 °F73.4 °F74 %29.92 in6.2 miEast (90°)9.2 mphScattered Clouds
9:00 AM83.0 °F73.0 °F65 %29.93 in6.0 miEast (90°)9.2 mphMostly Cloudy
9:30 AM84.2 °F73.4 °F70 %29.92 in6.2 miEast (90°)9.2 mphMostly Cloudy
10:00 AM84.0 °F73.0 °F63 %29.93 in6.0 miEast (80°)8.1 mphPartly Cloudy
10:00 AM84.2 °F73.4 °F70 %29.92 in6.2 miEast (80°)8.1 mphMostly Cloudy
10:30 AM84.2 °F75.2 °F74 %29.92 in6.2 miENE (70°)9.2 mphMostly Cloudy
11:00 AM85.0 °F75.0 °F65 %29.93 in6.0 miNE (50°)9.2 mphMostly Cloudy
11:00 AM86.0 °F75.2 °F70 %29.92 in6.2 miNE (50°)9.2 mphMostly Cloudy
11:30 AM86.0 °F73.4 °F66 %29.92 in6.2 miNE (40°)9.2 mphMostly Cloudy
12:00 PM86.0 °F73.4 °F66 %29.89 in6.2 miNE (50°)9.2 mphMostly Cloudy
12:00 PM85.0 °F74.0 °F62 %29.91 in6.0 miNE (50°)9.2 mphPartly Cloudy
12:30 PM86.0 °F73.4 °F66 %29.89 in6.2 miNE (50°)9.2 mphMostly Cloudy
1:00 PM86.0 °F73.4 °F66 %29.89 in6.2 miNE (50°)9.2 mphMostly Cloudy
1:30 PM86.0 °F75.2 °F70 %29.86 in6.2 miNE (40°)9.2 mphMostly Cloudy
2:00 PM86.0 °F74.0 °F60 %29.88 in6.0 miNE (40°)8.1 mphPartly Cloudy
2:00 PM86.0 °F73.4 °F66 %29.86 in6.2 miNE (40°)8.1 mphMostly Cloudy
2:41 PM84.2 °F75.2 °F74 %29.86 in6.2 miNNE (30°)6.9 mphMostly Cloudy
3:00 PM86.0 °F73.4 °F66 %29.86 in6.2 miNNE (30°)8.1 mphMostly Cloudy
3:00 PM85.0 °F74.0 °F62 %29.87 in6.0 miNNE (30°)8.1 mphPartly Cloudy
3:30 PM84.2 °F73.4 °F70 %29.86 in6.2 miNE (50°)5.8 mphMostly Cloudy
4:00 PM85.0 °F74.0 °F62 %29.87 in7.0 miNE (50°)4.6 mphPartly Cloudy
4:00 PM84.2 °F73.4 °F70 %29.86 in6.2 miNE (50°)4.6 mphMostly Cloudy
4:30 PM84.2 °F73.4 °F70 %29.86 in6.2 miENE (60°)3.5 mphMostly Cloudy
5:00 PM84.0 °F72.0 °F61 %29.87 in7.0 miENE (70°)4.6 mphPartly Cloudy
5:00 PM84.2 °F73.4 °F70 %29.86 in6.2 miENE (70°)4.6 mphMostly Cloudy
5:30 PM82.4 °F73.4 °F74 %29.86 in6.2 miEast (80°)4.6 mphMostly Cloudy
6:00 PM83.0 °F74.0 °F66 %29.88 in7.0 miEast (80°)5.8 mphMostly Cloudy
6:00 PM82.4 °F73.4 °F74 %29.86 in6.2 miEast (80°)5.8 mphMostly Cloudy
6:30 PM82.4 °F73.4 °F74 %29.86 in6.2 miENE (60°)8.1 mphMostly Cloudy
7:00 PM82.4 °F71.6 °F70 %29.89 in6.2 miENE (60°)8.1 mphMostly Cloudy
7:30 PM80.6 °F71.6 °F74 %29.89 in6.2 miEast (80°)6.9 mphMostly Cloudy
8:00 PM81.0 °F73.0 °F70 %29.91 in7.0 miSouth (180°)8.1 mphMostly Cloudy
8:00 PM80.6 °F73.4 °F79 %29.89 in6.2 miSouth (180°)8.1 mphMostly Cloudy
8:30 PM80.6 °F73.4 °F79 %29.92 in6.2 miSouth (170°)5.8 mphMostly Cloudy
9:00 PM80.0 °F72.0 °F69 %29.93 in7.0 miSouth (180°)8.1 mphMostly Cloudy
9:00 PM78.8 °F71.6 °F78 %29.92 in6.2 miSouth (180°)8.1 mphMostly Cloudy
10:00 PM80.0 °F71.0 °F69 %29.94 in7.0 miSouth (170°)6.9 mphMostly Cloudy
10:00 PM80.6 °F71.6 °F74 %29.92 in6.2 miSouth (170°)6.9 mphMostly Cloudy
11:00 PM80.0 °F72.0 °F69 %29.95 in7.0 miSSE (160°)5.8 mphMostly Cloudy
11:00 PM78.8 °F71.6 °F78 %29.95 in6.2 miSSE (160°)5.8 mphMostly Cloudy
11:30 PM78.8 °F71.6 °F78 %29.95 in6.2 miSouth (170°)4.6 mphOvercast
Hourly data recorded from FMEE, located 0.67 miles away from St.-Denis, Reunion







STORIES FROM OUR PARTNERS